Flag for Canada Weather past 2 weeks in Igloolik, Nunavut Territory, Canada

Now
0 °F

Low level haze.


Feels Like: -20 °F
Forecast: N/A
Wind: 15 mph from Northwest

Location: Hall Beach

Current Time: Oct 24, 2014 at 5:26:51 PM

Latest Report: Oct 24, 2014 at 4:00 PM


Visibility: 15 mi

Pressure: 30.29 "Hg

Humidity: 78%

Dew point: -6 °F

Location of IgloolikLocation

Historic Weather in Igloolik — Graph

°F

Igloolik temperature yesterday

Maximum temperature yesterday: 7 °F (at 6:00 PM)
Minimum temperature yesterday: -11 °F (at 12:00 AM)
Average temperature yesterday: 1 °F

Past Weeks' High & Low Weather Summary

 TemperatureHumidityPressure
High32 °F (Oct 11, 3:00 AM)100% (Oct 10, 4:00 PM)30.29 "Hg (Oct 10, 4:00 PM)
Low-11 °F (Oct 23, 12:00 AM)77% (Oct 22, 7:00 PM)29.38 "Hg (Oct 11, 3:00 AM)
Average20 °F93%29.81 "Hg
* Reported Oct 9 4:00 PM — Oct 24 4:00 PM, Igloolik, Weather by CustomWeather, © 2014

Note: Actual official high and low records may vary slightly from our data, if they occured in-between our weather recording intervals... More about our weather records

Advertising

Igloolik weather history for previous 24 hours

 ConditionsComfort  
Time TempWeatherWind HumidityBarometerVisibility
4:00 PM
Oct 24
0 °FLow level haze.15 mph78%30.29 "Hg15 mi
3:00 PM0 °FLow level haze.14 mph84%30.29 "Hg15 mi
2:00 PM1 °FLow level haze.23 mph85%30.27 "Hg15 mi
1:00 PM1 °FSunny.16 mph78%30.27 "Hg15 mi
12:00 PM1 °FLow level haze.22 mph85%30.27 "Hg15 mi
11:00 AM0 °FLow level haze.9 mph78%30.27 "Hg15 mi
10:00 AM-2 °FPassing clouds.7 mph84%30.27 "Hg15 mi
9:00 AM0 °FLow level haze.21 mph84%30.25 "Hg15 mi
8:00 AM0 °FLow level haze.24 mph84%30.24 "Hg12 mi
7:00 AM-2 °FClear.14 mph84%30.26 "Hg9 mi
6:00 AM0 °FClear.17 mph84%30.25 "Hg9 mi
5:00 AM1 °FClear.24 mph85%30.24 "Hg9 mi
4:00 AM3 °FIce fog.24 mph85%30.24 "Hg4 mi
3:58 AM3 °FIce fog.24 mph85%30.23 "Hg4 mi
3:00 AM1 °FClear.25 mph92%30.22 "Hg9 mi
2:45 AM3 °FIce fog.25 mph85%30.23 "Hg6 mi
2:00 AM3 °FIce fog.23 mph85%30.22 "Hg6 mi
1:03 AM5 °FIce fog.25 mph85%30.20 "Hg3 mi
12:54 AM5 °FIce fog.29 mph85%30.19 "Hg2 mi
12:00 AM3 °FPassing clouds.23 mph92%30.19 "Hg8 mi
11:57 PM
Oct 23
3 °FPassing clouds.24 mph92%30.19 "Hg8 mi
11:00 PM3 °FLight snow. Clear.25 mph92%30.18 "Hg4 mi
10:02 PM3 °FIce fog.26 mph92%30.17 "Hg2 mi
9:54 PM3 °FIce fog.26 mph92%30.17 "Hg3 mi
9:00 PM5 °FPassing clouds.23 mph85%30.18 "Hg9 mi
8:00 PM5 °FSnow flurries. Passing clouds.22 mph85%30.17 "Hg10 mi
7:00 PM5 °FSnow flurries. Passing clouds.26 mph85%30.15 "Hg3 mi
6:00 PM7 °FSnow flurries. Passing clouds.25 mph85%30.14 "Hg6 mi
5:00 PM5 °FPassing clouds.25 mph92%30.13 "Hg2 mi
Weather by CustomWeather, © 2014

See weather overviewHow to use our weather pages